{"data":{"norad_id":67667,"intl_designator":"2026-022V","name":"STARLINK-36622","alt_names":[],"object_type":"PAYLOAD","status":"ACTIVE","operator":null,"country":"US","launch_date":"2026-02-02","launch_site_code":"AFWTR","launch_vehicle":null,"mission":null,"orbit_class":"UNKNOWN","rcs_meters":null,"size_class":null,"mass_kg":null,"dimensions":null,"purposes":["comms"],"wikipedia_slug":null,"has_3d_model":false,"image_url":null,"decayed_at":null,"tle_current":{"epoch":"2026-09-19T20:06:29.152224Z","epoch_age_seconds":126421,"freshness":"FRESH","line1":"1 67667U 26022V   26262.83783741  .00021852  00000+0  67665-3 0  9993","line2":"2 67667  97.2860 294.3804 0000320 102.3687 257.7592 15.33473257 35328","mean_motion":15.33473257,"eccentricity":3.2e-5,"inclination_deg":97.286,"raan_deg":294.3804,"arg_perigee_deg":102.3687,"mean_anomaly_deg":257.7592,"bstar":0.00067665,"rev_number":3532,"period_min":93.90447426629,"perigee_km":465.24010774233,"apogee_km":465.67809789291,"semimajor_km":6843.5961028176,"source":"CELESTRAK","updated_at":"2026-09-20T09:00:43.623870Z"}}}